Meteo pe oră la Dziadowka

Astăzi, 8 Martie, Luni

Timp Temperatura Precipitaţii Vânt Presiune Umiditate
00:00 -4°C° 0 mm 5 m/s 740 mmHg 83%
01:00 -4°C° 0 mm 5 m/s 740 mmHg 82%
02:00 -4°C° 0.1 mm 5 m/s 740 mmHg 86%
03:00 -3°C° 0.1 mm 4 m/s 740 mmHg 89%
04:00 -3°C° 0.1 mm 4 m/s 740 mmHg 93%
05:00 -3°C° 0.2 mm 4 m/s 740 mmHg 90%
06:00 -3°C° 0.2 mm 4 m/s 740 mmHg 88%
07:00 -3°C° 0.2 mm 4 m/s 741 mmHg 86%
08:00 -2°C° 0 mm 4 m/s 741 mmHg 74%
09:00 -2°C° 0 mm 4 m/s 741 mmHg 63%
10:00 -1°C° 0 mm 4 m/s 742 mmHg 52%
11:00 -1°C° 0 mm 4 m/s 742 mmHg 51%
12:00 0°C° 0 mm 4 m/s 742 mmHg 50%
13:00 0°C° 0 mm 4 m/s 742 mmHg 49%
14:00 0°C° 0 mm 4 m/s 742 mmHg 50%
15:00 0°C° 0 mm 4 m/s 743 mmHg 52%
16:00 0°C° 0 mm 4 m/s 743 mmHg 53%
17:00 -1°C° 0 mm 3 m/s 743 mmHg 59%
18:00 -2°C° 0 mm 3 m/s 743 mmHg 65%
19:00 -3°C° 0 mm 2 m/s 744 mmHg 71%
20:00 -3°C° 0 mm 2 m/s 744 mmHg 72%
21:00 -3°C° 0 mm 2 m/s 744 mmHg 74%
22:00 -3°C° 0 mm 2 m/s 744 mmHg 76%
23:00 -4°C° 0 mm 2 m/s 745 mmHg 77%

Mâine, 9 Martie, Marţi

Timp Temperatura Precipitaţii Vânt Presiune Umiditate
00:00 -4°C° 0 mm 2 m/s 745 mmHg 78%
01:00 -4°C° 0 mm 2 m/s 745 mmHg 79%
02:00 -4°C° 0 mm 2 m/s 744 mmHg 79%
03:00 -2°C° 0 mm 1 m/s 744 mmHg 79%
04:00 -2°C° 0 mm 1 m/s 744 mmHg 79%
05:00 -2°C° 0 mm 1 m/s 744 mmHg 76%
06:00 -2°C° 0 mm 1 m/s 745 mmHg 74%
07:00 -2°C° 0 mm 1 m/s 745 mmHg 72%
08:00 -1°C° 0 mm 1 m/s 745 mmHg 65%
09:00 0°C° 0 mm 1 m/s 745 mmHg 58%
10:00 +1°C° 0 mm 1 m/s 745 mmHg 51%
11:00 +2°C° 0 mm 1 m/s 745 mmHg 49%
12:00 +1°C° 0 mm 0 m/s 745 mmHg 46%
13:00 +2°C° 0 mm 0 m/s 745 mmHg 44%
14:00 +1°C° 0 mm 0 m/s 744 mmHg 45%
15:00 +1°C° 0 mm 0 m/s 744 mmHg 46%
16:00 +1°C° 0 mm 0 m/s 744 mmHg 47%
17:00 +1°C° 0 mm 1 m/s 744 mmHg 51%
18:00 0°C° 0 mm 1 m/s 744 mmHg 56%
19:00 -3°C° 0 mm 2 m/s 744 mmHg 60%
20:00 -1°C° 0 mm 1 m/s 744 mmHg 61%
21:00 -2°C° 0 mm 1 m/s 744 mmHg 62%
22:00 -2°C° 0 mm 1 m/s 745 mmHg 63%
23:00 -2°C° 0 mm 1 m/s 744 mmHg 63%

Poimâine, 10 Martie, Miercuri

Timp Temperatura Precipitaţii Vânt Presiune Umiditate
00:00 -2°C° 0 mm 1 m/s 744 mmHg 64%
01:00 -2°C° 0 mm 1 m/s 744 mmHg 64%
02:00 -2°C° 0 mm 1 m/s 744 mmHg 64%
03:00 -2°C° 0 mm 1 m/s 744 mmHg 64%
04:00 -2°C° 0 mm 1 m/s 743 mmHg 63%
05:00 -2°C° 0 mm 1 m/s 744 mmHg 62%
06:00 -2°C° 0 mm 1 m/s 744 mmHg 61%
07:00 -1°C° 0 mm 1 m/s 744 mmHg 60%
08:00 0°C° 0 mm 1 m/s 744 mmHg 55%
09:00 +1°C° 0 mm 1 m/s 744 mmHg 49%
10:00 +1°C° 0 mm 2 m/s 744 mmHg 44%
11:00 +3°C° 0 mm 1 m/s 744 mmHg 42%
12:00 +3°C° 0 mm 1 m/s 744 mmHg 40%
13:00 +4°C° 0 mm 1 m/s 744 mmHg 39%
14:00 +3°C° 0 mm 1 m/s 744 mmHg 40%
15:00 +3°C° 0 mm 1 m/s 743 mmHg 41%
16:00 +3°C° 0 mm 1 m/s 743 mmHg 41%
17:00 +2°C° 0 mm 1 m/s 743 mmHg 46%
18:00 -1°C° 0 mm 2 m/s 744 mmHg 51%
19:00 -3°C° 0 mm 2 m/s 744 mmHg 56%
20:00 -3°C° 0 mm 2 m/s 744 mmHg 57%
21:00 -3°C° 0 mm 2 m/s 744 mmHg 58%
22:00 -3°C° 0 mm 2 m/s 744 mmHg 59%
23:00 -3°C° 0 mm 2 m/s 744 mmHg 59%

11 Martie, Joi

Timp Temperatura Precipitaţii Vânt Presiune Umiditate
00:00 -3°C° 0 mm 2 m/s 744 mmHg 60%
01:00 -3°C° 0 mm 2 m/s 743 mmHg 60%
02:00 -3°C° 0 mm 2 m/s 743 mmHg 61%
03:00 -3°C° 0 mm 2 m/s 743 mmHg 61%
04:00 -3°C° 0 mm 2 m/s 742 mmHg 62%
05:00 -4°C° 0 mm 3 m/s 742 mmHg 61%
06:00 -2°C° 0 mm 3 m/s 741 mmHg 59%
07:00 -2°C° 0 mm 3 m/s 741 mmHg 58%
08:00 -2°C° 0 mm 4 m/s 741 mmHg 59%
09:00 0°C° 0 mm 4 m/s 740 mmHg 59%
10:00 +1°C° 0 mm 5 m/s 740 mmHg 60%
11:00 +1°C° 0.2 mm 6 m/s 739 mmHg 69%
12:00 +1°C° 0.2 mm 6 m/s 738 mmHg 78%
13:00 0°C° 0.2 mm 7 m/s 737 mmHg 87%
14:00 0°C° 0.7 mm 7 m/s 736 mmHg 88%
15:00 +1°C° 0.7 mm 6 m/s 735 mmHg 88%
16:00 +1°C° 0.7 mm 6 m/s 735 mmHg 89%
17:00 +1°C° 0.6 mm 5 m/s 734 mmHg 88%
18:00 +1°C° 0.6 mm 5 m/s 734 mmHg 88%
19:00 +1°C° 0.6 mm 5 m/s 733 mmHg 87%
20:00 +2°C° 0.5 mm 5 m/s 733 mmHg 87%
21:00 +2°C° 0.5 mm 5 m/s 733 mmHg 87%
22:00 +2°C° 0.5 mm 5 m/s 732 mmHg 86%
23:00 +3°C° 0.2 mm 5 m/s 732 mmHg 87%

12 Martie, Vineri

Timp Temperatura Precipitaţii Vânt Presiune Umiditate
00:00 +3°C° 0.2 mm 5 m/s 733 mmHg 88%
01:00 +3°C° 0.2 mm 5 m/s 733 mmHg 89%
02:00 +3°C° 0.2 mm 5 m/s 733 mmHg 89%
03:00 +3°C° 0.2 mm 5 m/s 733 mmHg 90%
04:00 +3°C° 0.2 mm 5 m/s 733 mmHg 90%
05:00 +3°C° 0 mm 5 m/s 733 mmHg 89%
06:00 +3°C° 0 mm 5 m/s 734 mmHg 88%
07:00 +2°C° 0 mm 5 m/s 734 mmHg 87%
08:00 +3°C° 0.1 mm 6 m/s 734 mmHg 78%
09:00 +5°C° 0.1 mm 8 m/s 734 mmHg 69%
10:00 +6°C° 0.1 mm 10 m/s 735 mmHg 60%
11:00 +6°C° 0.1 mm 9 m/s 735 mmHg 61%
12:00 +5°C° 0.1 mm 9 m/s 735 mmHg 63%
13:00 +5°C° 0.1 mm 9 m/s 736 mmHg 65%
14:00 +5°C° 0 mm 8 m/s 736 mmHg 64%
15:00 +5°C° 0 mm 8 m/s 736 mmHg 62%
16:00 +5°C° 0 mm 7 m/s 736 mmHg 60%
17:00 +4°C° 0 mm 6 m/s 737 mmHg 65%
18:00 +3°C° 0 mm 5 m/s 737 mmHg 70%
19:00 +3°C° 0 mm 4 m/s 737 mmHg 75%
20:00 +3°C° 0 mm 4 m/s 738 mmHg 76%
21:00 +2°C° 0 mm 3 m/s 738 mmHg 77%
22:00 +2°C° 0 mm 3 m/s 738 mmHg 78%
23:00 +1°C° 0 mm 3 m/s 738 mmHg 80%

13 Martie, Sâmbătă

Timp Temperatura Precipitaţii Vânt Presiune Umiditate
00:00 +1°C° 0 mm 3 m/s 738 mmHg 82%
01:00 0°C° 0 mm 3 m/s 738 mmHg 84%
02:00 0°C° 0 mm 3 m/s 738 mmHg 84%
03:00 0°C° 0 mm 3 m/s 738 mmHg 85%
04:00 0°C° 0 mm 3 m/s 738 mmHg 85%
05:00 0°C° 0 mm 3 m/s 738 mmHg 83%
06:00 0°C° 0 mm 3 m/s 738 mmHg 81%
07:00 +1°C° 0 mm 3 m/s 738 mmHg 79%
08:00 +2°C° 0 mm 3 m/s 738 mmHg 73%
09:00 +4°C° 0 mm 4 m/s 738 mmHg 67%
10:00 +6°C° 0 mm 4 m/s 738 mmHg 61%
11:00 +7°C° 0 mm 4 m/s 737 mmHg 58%
12:00 +7°C° 0 mm 4 m/s 737 mmHg 56%
13:00 +8°C° 0 mm 4 m/s 737 mmHg 53%
14:00 +8°C° 0.1 mm 4 m/s 736 mmHg 56%
15:00 +8°C° 0.1 mm 4 m/s 736 mmHg 59%
16:00 +8°C° 0.1 mm 4 m/s 735 mmHg 62%
17:00 +6°C° 0 mm 4 m/s 736 mmHg 69%
18:00 +5°C° 0 mm 4 m/s 736 mmHg 77%
19:00 +4°C° 0 mm 4 m/s 736 mmHg 84%
20:00 +4°C° 0 mm 3 m/s 736 mmHg 84%
21:00 +4°C° 0 mm 3 m/s 736 mmHg 84%
22:00 +5°C° 0 mm 2 m/s 736 mmHg 84%
23:00 +4°C° 0 mm 2 m/s 736 mmHg 86%
Arată mai mult

Formular de consimțământ

Meteoprog și furnizorii noștri de servicii pot stoca și accesa date personale, precum cookies, identificatori de dispozitiv sau alte tehnologii similare pe dispozitivul dumneavoastră și procesa astfel de date pentru a personaliza conținutul și reclamele, dar și pentru a oferi caracteristici de social media și pentru a analiza traficul.

  • Stocarea și/sau accesarea informațiilor pe dispozitivul dumneavoastră

    Cookies, identificatori de dispozitiv sau alte informații pot fi stocate sau accesate pe dispozitiv în scopurile indicate mai sus.

  • Reclame și conținut personalizat, evaluarea reclamelor și a conținutului, informații despre audiențe și dezvoltarea produselor

    Reclamele și conținutul pot fi personalizate pe baza unui profil. Pot fi adăugate date suplimentare pentru a personaliza mai bine reclamele și conținutul. Performanța reclamelor și conținutului poate fi măsurată. Pot fi obținute informații despre utilizatorii care au văzut reclamele și conținutul. Aceste date pot fi utilizate pentru a dezvolta sau îmbunătăți experiența utilizatorilor, sistemele și software-ul.

Dând clic pe ‘Sunt de acord’, permiteți utilizarea cookie-urilor menționate, a identificatorilor de dispozitiv, balizelor web sau altor tehnologii similare. Setările pot fi modificate din browser-ul dispozitivului dumneavoastră.

În anumite scopuri, interesele legitime pot prima asupra consimțământului. Puteți citi mai multe informații în acest sens în Politica privind Confidențialitatea Datelor și Cookie.